{"data":{"norad_id":64418,"intl_designator":"2025-129G","name":"STARLINK-34461","alt_names":[],"object_type":"PAYLOAD","status":"ACTIVE","operator":null,"country":"US","launch_date":"2025-06-17","launch_site_code":"AFWTR","launch_vehicle":null,"mission":null,"orbit_class":"UNKNOWN","rcs_meters":null,"size_class":null,"mass_kg":null,"dimensions":null,"purposes":["comms"],"wikipedia_slug":null,"has_3d_model":false,"image_url":null,"decayed_at":null,"tle_current":{"epoch":"2026-05-25T00:02:13.183872Z","epoch_age_seconds":78050,"freshness":"FRESH","line1":"1 64418U 25129G   26145.00154148  .00002292  00000+0  19979-3 0  9995","line2":"2 64418  70.0006 242.2202 0003242 270.9983  89.0805 14.98334604 52718","mean_motion":14.98334604,"eccentricity":0.0003242,"inclination_deg":70.0006,"raan_deg":242.2202,"arg_perigee_deg":270.9983,"mean_anomaly_deg":89.0805,"bstar":0.00019979,"rev_number":5271,"period_min":96.106703813403,"perigee_km":569.7884055712,"apogee_km":574.29490141012,"semimajor_km":6950.1786534907,"source":"CELESTRAK","updated_at":"2026-05-25T13:38:20.439323Z"}}}